User: anonymous   Login
Location: Toronto
(43.6672°N, 79.4170°W)
Time: 06:21:05
(UTC-04:00)
Language:

ISS - Orbit

View from above orbital plane
View from above orbital plane
View from above satellite
View from above satellite

Ground track
Ground track

The orbit data is extracted from the following two-line orbital elements,

1 25544U 98067A   16208.11040522  .00001394  00000-0  27577-4 0  9991
2 25544  51.6433 223.8247 0002160  79.8872  25.2799 15.54882655 11041
Epoch (UTC): 26 July 2016 02:38:59
Eccentricity: 0.0002160
inclination: 51.6433°
perigee height: 401 km
apogee height: 404 km
right ascension of ascending node: 223.8247°
argument of perigee: 79.8872°
revolutions per day: 15.54882655
mean anomaly at epoch: 25.2799°
orbit number at epoch: 1104

The dashed part of the orbit path shows where the satellite is in the earth's shadow,  

DLR